When you browse on this site, cookies collect data to enhance your experience and personalize the content and advertising you see.
Visit our Privacy Policy to learn more. By continuing to use the site, you agree to this use of cookies and data.
  • In Portugal
  • List of Countries
  • For 7 days
  • Water Temperature
  • Weather Map
  • Weather Widgets
  • user-avatar
    Login

    Hourly Weather Sofino

    Today, 5 June, Friday

    Time Temperature Precipitation Wind Pressure Humidity
    00:00 +12°C° 0 mm 2 mps 740 mmHg 95%
    01:00 +10°C° 0 mm 3 mps 741 mmHg 96%
    02:00 +9°C° 0 mm 3 mps 741 mmHg 97%
    03:00 +9°C° 0 mm 3 mps 741 mmHg 96%
    04:00 +10°C° 0 mm 3 mps 741 mmHg 95%
    05:00 +10°C° 0 mm 3 mps 742 mmHg 95%
    06:00 +11°C° 0 mm 3 mps 742 mmHg 89%
    07:00 +13°C° 0 mm 4 mps 742 mmHg 83%
    08:00 +14°C° 0 mm 4 mps 743 mmHg 78%
    09:00 +15°C° 0.1 mm 4 mps 742 mmHg 73%
    10:00 +18°C° 0.1 mm 4 mps 742 mmHg 67%
    11:00 +19°C° 0.1 mm 5 mps 742 mmHg 61%
    12:00 +19°C° 0.2 mm 4 mps 742 mmHg 62%
    13:00 +19°C° 0.2 mm 4 mps 742 mmHg 63%
    14:00 +19°C° 0 mm 3 mps 743 mmHg 60%
    15:00 +18°C° 0.6 mm 3 mps 743 mmHg 68%
    16:00 +18°C° 0.6 mm 2 mps 743 mmHg 76%
    17:00 +17°C° 0.6 mm 2 mps 743 mmHg 83%
    18:00 +16°C° 0.1 mm 2 mps 743 mmHg 87%
    19:00 +14°C° 0.1 mm 1 mps 743 mmHg 90%
    20:00 +13°C° 0.1 mm 1 mps 743 mmHg 93%
    21:00 +12°C° 0 mm 1 mps 743 mmHg 95%
    22:00 +12°C° 0 mm 2 mps 743 mmHg 96%
    23:00 +10°C° 0 mm 2 mps 744 mmHg 97%

    Tomorrow, 6 June, Saturday

    Time Temperature Precipitation Wind Pressure Humidity
    00:00 +10°C° 0 mm 2 mps 744 mmHg 97%
    01:00 +10°C° 0 mm 1 mps 744 mmHg 97%
    02:00 +10°C° 0 mm 1 mps 744 mmHg 97%
    03:00 +11°C° 0 mm 1 mps 745 mmHg 97%
    04:00 +10°C° 0 mm 2 mps 745 mmHg 96%
    05:00 +10°C° 0 mm 2 mps 745 mmHg 96%
    06:00 +13°C° 0 mm 2 mps 745 mmHg 91%
    07:00 +15°C° 0 mm 2 mps 745 mmHg 86%
    08:00 +16°C° 0 mm 3 mps 745 mmHg 81%
    09:00 +18°C° 0 mm 3 mps 745 mmHg 73%
    10:00 +19°C° 0 mm 3 mps 745 mmHg 65%
    11:00 +21°C° 0 mm 4 mps 745 mmHg 57%
    12:00 +21°C° 0 mm 4 mps 745 mmHg 58%
    13:00 +22°C° 0 mm 4 mps 745 mmHg 59%
    14:00 +22°C° 0 mm 4 mps 745 mmHg 60%
    15:00 +21°C° 0.8 mm 3 mps 744 mmHg 71%
    16:00 +19°C° 0.8 mm 3 mps 744 mmHg 83%
    17:00 +18°C° 0.8 mm 2 mps 744 mmHg 94%
    18:00 +18°C° 0.6 mm 2 mps 744 mmHg 95%
    19:00 +17°C° 0.6 mm 2 mps 745 mmHg 96%
    20:00 +17°C° 0.6 mm 2 mps 745 mmHg 97%
    21:00 +17°C° 0 mm 2 mps 745 mmHg 97%
    22:00 +16°C° 0 mm 2 mps 745 mmHg 98%
    23:00 +16°C° 0 mm 2 mps 745 mmHg 98%

    Day after tomorrow, 7 June, Sunday

    Time Temperature Precipitation Wind Pressure Humidity
    00:00 +15°C° 0 mm 2 mps 746 mmHg 98%
    01:00 +15°C° 0 mm 2 mps 746 mmHg 97%
    02:00 +15°C° 0 mm 2 mps 747 mmHg 97%
    03:00 +15°C° 0 mm 2 mps 747 mmHg 97%
    04:00 +15°C° 0 mm 2 mps 748 mmHg 96%
    05:00 +16°C° 0 mm 2 mps 748 mmHg 95%
    06:00 +17°C° 0 mm 2 mps 749 mmHg 89%
    07:00 +19°C° 0 mm 2 mps 749 mmHg 83%
    08:00 +20°C° 0 mm 2 mps 750 mmHg 77%
    09:00 +21°C° 0 mm 2 mps 750 mmHg 69%
    10:00 +24°C° 0 mm 2 mps 750 mmHg 61%
    11:00 +25°C° 0 mm 2 mps 751 mmHg 52%
    12:00 +25°C° 0 mm 2 mps 751 mmHg 50%
    13:00 +26°C° 0 mm 2 mps 751 mmHg 48%
    14:00 +26°C° 0 mm 2 mps 751 mmHg 46%
    15:00 +26°C° 0 mm 1 mps 751 mmHg 48%
    16:00 +26°C° 0 mm 1 mps 751 mmHg 51%
    17:00 +26°C° 0 mm 1 mps 751 mmHg 53%
    18:00 +23°C° 0 mm 1 mps 751 mmHg 59%
    19:00 +21°C° 0 mm 1 mps 751 mmHg 66%
    20:00 +19°C° 0 mm 1 mps 751 mmHg 72%
    21:00 +18°C° 0 mm 1 mps 751 mmHg 76%
    22:00 +18°C° 0 mm 1 mps 751 mmHg 79%
    23:00 +16°C° 0 mm 1 mps 752 mmHg 83%

    8 June, Monday

    Time Temperature Precipitation Wind Pressure Humidity
    00:00 +15°C° 0 mm 1 mps 752 mmHg 85%
    01:00 +15°C° 0 mm 1 mps 752 mmHg 88%
    02:00 +15°C° 0 mm 1 mps 752 mmHg 91%
    03:00 +15°C° 0 mm 1 mps 752 mmHg 89%
    04:00 +16°C° 0 mm 1 mps 752 mmHg 88%
    05:00 +18°C° 0 mm 1 mps 752 mmHg 87%
    06:00 +19°C° 0 mm 2 mps 752 mmHg 81%
    07:00 +21°C° 0 mm 2 mps 752 mmHg 76%
    08:00 +24°C° 0 mm 2 mps 752 mmHg 70%
    09:00 +25°C° 0 mm 2 mps 752 mmHg 64%
    10:00 +26°C° 0 mm 2 mps 752 mmHg 58%
    11:00 +27°C° 0 mm 2 mps 752 mmHg 52%
    12:00 +28°C° 0 mm 2 mps 752 mmHg 51%
    13:00 +28°C° 0 mm 2 mps 752 mmHg 49%
    14:00 +29°C° 0 mm 2 mps 752 mmHg 47%
    15:00 +29°C° 0 mm 2 mps 751 mmHg 52%
    16:00 +28°C° 0 mm 2 mps 751 mmHg 56%
    17:00 +28°C° 0 mm 2 mps 751 mmHg 60%
    18:00 +26°C° 0 mm 2 mps 751 mmHg 68%
    19:00 +24°C° 0 mm 2 mps 751 mmHg 75%
    20:00 +21°C° 0 mm 2 mps 751 mmHg 82%
    21:00 +20°C° 0 mm 2 mps 751 mmHg 86%
    22:00 +19°C° 0 mm 2 mps 751 mmHg 90%
    23:00 +18°C° 0 mm 2 mps 751 mmHg 94%

    9 June, Tuesday

    Time Temperature Precipitation Wind Pressure Humidity
    00:00 +18°C° 0 mm 2 mps 752 mmHg 94%
    01:00 +19°C° 0 mm 1 mps 752 mmHg 95%
    02:00 +18°C° 0 mm 1 mps 752 mmHg 95%
    03:00 +19°C° 0 mm 1 mps 752 mmHg 93%
    04:00 +19°C° 0 mm 2 mps 752 mmHg 91%
    05:00 +19°C° 0 mm 2 mps 752 mmHg 89%
    06:00 +21°C° 0 mm 2 mps 752 mmHg 82%
    07:00 +23°C° 0 mm 2 mps 752 mmHg 75%
    08:00 +25°C° 0 mm 2 mps 752 mmHg 67%
    09:00 +26°C° 0 mm 2 mps 752 mmHg 63%
    10:00 +27°C° 0 mm 3 mps 752 mmHg 59%
    11:00 +28°C° 0 mm 3 mps 752 mmHg 55%
    12:00 +28°C° 0 mm 3 mps 752 mmHg 53%
    13:00 +28°C° 0 mm 3 mps 752 mmHg 52%
    14:00 +29°C° 0 mm 3 mps 751 mmHg 51%
    15:00 +28°C° 0 mm 3 mps 751 mmHg 55%
    16:00 +28°C° 0 mm 2 mps 751 mmHg 59%
    17:00 +27°C° 0 mm 2 mps 751 mmHg 63%
    18:00 +25°C° 0 mm 2 mps 751 mmHg 70%
    19:00 +24°C° 0 mm 2 mps 751 mmHg 78%
    20:00 +21°C° 0 mm 2 mps 751 mmHg 85%
    21:00 +20°C° 0 mm 2 mps 751 mmHg 88%
    22:00 +19°C° 0 mm 2 mps 751 mmHg 92%
    23:00 +18°C° 0 mm 2 mps 751 mmHg 95%

    10 June, Wednesday

    Time Temperature Precipitation Wind Pressure Humidity
    00:00 +17°C° 0 mm 2 mps 751 mmHg 95%
    01:00 +17°C° 0 mm 2 mps 751 mmHg 96%
    02:00 +17°C° 0 mm 2 mps 751 mmHg 96%
    03:00 +17°C° 0 mm 2 mps 751 mmHg 94%
    04:00 +18°C° 0 mm 2 mps 751 mmHg 93%
    05:00 +18°C° 0 mm 2 mps 751 mmHg 91%
    06:00 +20°C° 0 mm 2 mps 751 mmHg 84%
    07:00 +21°C° 0 mm 2 mps 751 mmHg 78%
    08:00 +24°C° 0 mm 2 mps 751 mmHg 71%
    09:00 +25°C° 0 mm 2 mps 751 mmHg 66%
    10:00 +26°C° 0 mm 2 mps 751 mmHg 61%
    11:00 +27°C° 0 mm 3 mps 751 mmHg 56%
    12:00 +27°C° 0 mm 2 mps 750 mmHg 55%
    13:00 +28°C° 0 mm 2 mps 750 mmHg 53%
    14:00 +28°C° 0 mm 2 mps 749 mmHg 52%
    15:00 +28°C° 0.1 mm 2 mps 749 mmHg 56%
    16:00 +27°C° 0.1 mm 2 mps 749 mmHg 59%
    17:00 +27°C° 0.1 mm 2 mps 749 mmHg 63%
    18:00 +25°C° 0.1 mm 2 mps 748 mmHg 71%
    19:00 +23°C° 0.1 mm 1 mps 748 mmHg 79%
    20:00 +21°C° 0.1 mm 1 mps 748 mmHg 87%
    21:00 +20°C° 0 mm 1 mps 748 mmHg 89%
    22:00 +20°C° 0 mm 1 mps 748 mmHg 91%
    23:00 +19°C° 0 mm 1 mps 748 mmHg 93%
    Show more